Regional Weather Roundup
Issued by NWS Wakefield, VA

Home | Current Version | Previous Version | Text Only | Print | Product List | Glossary On
Versions: 1 2 3 4 5 6 7 8 9 10 11 12 13 14 15 16 17 18 19 20 21 22 23 24 25 26 27 28 29 30 31 32 33 34 35 36 37 38 39 40 41 42 43 44 45 46 47 48 49 50
000
ASUS41 KAKQ 270110
RWRAKQ

REGIONAL WEATHER ROUNDUP
NATIONAL WEATHER SERVICE WAKEFIELD VA
800 PM EST WED NOV 26 2014

Note: "fair" indicates few or no clouds below 12,000 feet with no
significant weather and/or obstructions to visibility. * = Denotes
station may not report precipitation (e.g., rain,snow,etc.),
thunder or fog.

VAZ042-051-052>054-056-270200-
NORTHERN VIRGINIA

CITY           SKY/WX    TMP DP  RH WIND       PRES   REMARKS
WASH NATIONAL  CLOUDY    39  33  79 NW8       29.97R
DULLES         CLOUDY    34  33  96 NW8       29.96S
FORT BELVOIR   CLOUDY    37  34  88 NW6       29.97S
QUANTICO       CLOUDY    38  33  82 N7        29.98S
FREDERICKSBRG* CLOUDY    38  38 100 W5        29.98R
STAFFORD*      CLOUDY    35  35 100 CALM      30.01R
WARRENTON      CLOUDY    36  36 100 CALM      29.97R
CULPEPER*      CLOUDY    36  36 100 CALM      29.98R
MANASSAS*      CLOUDY    36  36 100 NW5       29.97S
LEESBURG*      CLOUDY    36  36 100 NW6       29.97R
WINCHESTER     CLOUDY    36  32  87 NW9       29.97S
FRONT ROYAL*   CLOUDY    32  32 100 S6        29.96S
LURAY*         FOG       34  34 100 CALM      29.98S VSB 1/4
$$

VAZ048-049-060>072-079>083-270200-
CENTRAL AND SOUTH CENTRAL VIRGINIA

CITY           SKY/WX    TMP DP  RH WIND       PRES   REMARKS
RICHMOND       CLOUDY    39  35  86 NW7       29.99R
CHESTERFIELD*  CLOUDY    37  27  65 NW7       30.01R
PETERSBURG*    CLOUDY    39  38  94 W6        30.02R
HANOVER        CLOUDY    37  34  89 VRB3      30.00S
TAPPAHANNOCK*  CLOUDY    38  34  86 W7        29.98R
QUINTON*       CLOUDY    37  35  93 NW6       29.98R
CHARLOTTSVILLE CLOUDY    37  35  92 SW5       29.98R
GORDONSVILLE*  CLOUDY    35  35  99 SW3       29.98R
ORANGE*        CLOUDY    36  36 100 S3        30.00R
LOUISA*        CLOUDY    36  36 100 SW3       29.98R
BUMPASS*       CLOUDY    35  34  96 CALM      29.98S
FARMVILLE*     CLOUDY    39  39 100 SW3         N/A
CREWE*         CLOUDY    38  36  94 CALM      30.00R
FORT PICKETT*  CLOUDY    37  36  98 W5        30.00S
CHASE CITY*    CLOUDY    40  40 100 CALM      30.03R
CLARKSVILLE*   CLOUDY    37  37 100 SW3       30.04R
SOUTH HILL*    CLOUDY    37  36  95 W5        30.08R
LAWRENCEVILLE* CLOUDY    37  36  97 CALM      30.01R
$$

VAZ088>098-270200-
SOUTHEAST VIRGINIA

CITY           SKY/WX    TMP DP  RH WIND       PRES   REMARKS
NORFOLK        CLOUDY    41  36  82 NW9G17    29.95R
VIRGINIA BEACH CLOUDY    43  39  86 NW15G25   29.94R
NORFOLK NAVAL  CLOUDY    43  37  79 NW10G22   29.97R
WEST POINT*    CLOUDY    40  37  89 W7        29.99R
SALUDA*        CLOUDY    39  36  89 NW13      29.94R
NEWPORT NEWS   LGT RAIN  43  37  79 NW8       29.96R
LANGLEY AFB    CLOUDY    40  40 100 NW13      29.96R
FORT EUSTIS    DRIZZLE   39  39 100 NW14      29.95R
WILLIAMSBURG*  CLOUDY    39  39 100 NW12      29.98R
HR EXEC AP*    CLOUDY    39  36  87 W3        29.99R
FRANKLIN*      CLOUDY    39  37  93 NW5       30.00R
WAKEFIELD      CLOUDY    39  36  89 NW5       29.99R
$$

VAZ020-022-025-037-045-270200-
WEST CENTRAL AND SOUTHWEST VIRGINIA

CITY           SKY/WX    TMP DP  RH WIND       PRES   REMARKS
STAUNTON*        N/A    N/A N/A N/A MISG        N/A
WAYNESBORO*    CLOUDY    32  32 100 W3        29.97S
HOT SPRINGS VA   N/A    N/A N/A N/A MISG        N/A
LYNCHBURG      CLOUDY    38  38 100 SW3       30.01R
DANVILLE       CLOUDY    40  37  89 W3        30.04R
SOUTH BOSTON*  CLOUDY    40  39  96 CALM      30.04R
MARTINSVILLE   MOCLDY    39  39 100 CALM      30.03F
ROANOKE        CLOUDY    37  34  89 NW6       30.03R
BLACKSBURG     CLOUDY    37  37 100 CALM      30.01R
DUBLIN*        PTCLDY    36  36  99 SW5       30.00S
MARION*        FOG       35  33  95 CALM      30.01R VSB<1/4
HILLSVILLE*    CLEAR     35  32  89 CALM      29.97S
RICHLANDS*     CLOUDY    38  36  94 CALM      29.97S
WISE*          MOCLDY    37  30  75 CALM      29.98S
ABINGDON*      PTCLDY    35  34  99 CALM      30.00R FOG
$$

MDZ021>025-VAZ099-100-270200-
SOUTHERN MARYLAND AND THE DELMARVA PENINSULA

CITY           SKY/WX    TMP DP  RH WIND       PRES   REMARKS
PATUXENT RIVER CLOUDY    39  35  86 NW15      29.92R
BAY BRIDGE APT   N/A     37  34  87 N14G20    29.92S
LEONARDTOWN    CLOUDY    36  34  93 NW7       29.95R
DOVER          LGT RAIN  37  37 100 NW18      29.85S
GEORGETOWN     CLOUDY    38  35  89 N12G20    29.88R
EASTON         CLOUDY    39  39 100 N13G18    29.94S
CAMBRIDGE      CLOUDY    41  37  87 NW10G18   29.90R
SALISBURY      LGT RAIN  39  36  89 NW14G21   29.88R
OCEAN CITY     CLOUDY    37  34  89 N18G26    29.85R
WALLOPS ISLAND CLOUDY    37  35  92 N14G23    29.87S
ACCOMACK*      CLOUDY    41  36  81 N16G23    29.89R
$$

NCZ012>017-030>032-270200-
NORTH CENTRAL AND EASTERN NORTH CAROLINA

CITY           SKY/WX    TMP DP  RH WIND       PRES   REMARKS
ROANOKE RAPIDS PTCLDY    36  36 100 W3        30.04R
RALEIGH        MOCLDY    43  39  86 CALM      30.06R
ELIZABETH CITY CLOUDY    43  37  79 NW13      29.97R
AHOSKIE*       CLOUDY    38  37  93 W3        30.03R
EDENTON*       CLOUDY    41  38  87 NW9       30.00R
CURRITUCK*     CLOUDY    41  37  86 W7        29.97R
KILL DEVIL HLS CLOUDY    42  40  90 NW12G18   29.95R
MANTEO         CLOUDY    42  38  86 NW12G18   29.97R
CAPE HATTERAS  CLOUDY    45  42  89 NW17G28   29.99R
TARBORO*       CLOUDY    41  38  89 W7        30.06R
GOLDSBORO      CLOUDY    43  43  97 W5        30.07R
WASHINGTON     CLOUDY    42  38  87 NW7       30.04R
GREENVILLE     CLOUDY    43  39  87 NW8       30.07R
NEW BERN       CLOUDY    46  40  79 W9        30.06R
WILMINGTON     CLEAR     47  42  83 W9        30.08R
$$

VAZ048-270200-
ELSEWHERE

CITY           SKY/WX    TMP DP  RH WIND       PRES   REMARKS
HARRISBURG PA  FLURRIES  34  31  88 NW13      29.94S WCI  25
BALTIMORE      CLOUDY    36  33  89 NW7       29.93R
ANNAPOLIS      CLOUDY    38  34  85 NW12      29.93R
ANDREWS AFB    MOCLDY    37  34  91 NW12      29.94R
PHILADELPHIA   LGT RAIN  37  33  85 NW21G30   29.87S
WILDWOOD NJ*   CLOUDY    37  30  75 NW10G23   29.83R
HENDERSON NC   CLOUDY    40  38  93 SW3       30.04R
GREENSBORO     MOCLDY    41  38  89 S3        30.02S
ROCKY MOUNT    MOCLDY    40  37  89 W5        30.07R
$$

VAZ100-270200-
MARINE

STATION/POSITION TIME  TEMP    WIND        PRES    WAVE   SWELL
                       AIR SEA DIR/SP/G            HT/PER HT/PER
                 (UTC) (F)     (DEG/KT/KT) (MB)    (FT/S) (FT/S)
CAPE MAY NJ      0100   38 49  330/ 19/ 26 1010.3R
LEWES DE         0100   40 48  340/ 29/ 35 1010.4F
15NM E FENWICK I 0100   42 54              1008.1R  13/ 9
OCEAN-CITY-INLET 0100   38 49  340/ 20/ 29 1010.0R
WACHAPREAGUE VA  0100   40 49  330/  5/ 12 1011.7R
THOMAS POINT MD  0100   38 47  330/ 15/ 16 1014.4R
GOOSES REEF MD   0100   40 49  340/ 19/ 23 1013.7R   3/ 3
COVE POINT MD    0100   39     360/ 22/ 24 1013.0R
SOLOMONS ISLAND  0100      49                N/A
BISHOPS HEAD MD  0100   39 45  340/ 10/ 18 1011.9F
PINEY POINT MD   0100          340/ 17/ 19   N/A
POTOMAC MD       0100   40 49  340/ 14/ 17 1012.8R   2/ 3
CAMBRIDGE MD     0100   40 45  340/ 15/ 18 1012.4R
LEWISETTA VA     0100   40 49  330/ 14/ 18 1013.6R
RAPPAHANNOCK LGT 0100          330/ 28/ 30 1012.9R
STINGRAY PT      0100   41 49  320/ 16/ 21 1014.0R   2/ 3
YORK RVR RNG VA  0100   41     340/ 17/ 21 1013.3S
YORKTOWN VA      0100   40 51  320/ 16/ 18 1013.9R
JAMESTOWN VA     0100   39 51  330/ 14/ 17   N/A     1
DOMINION TERM VA 0100   42     330/  8/ 16 1014.1R
KIPTOPEKE VA     0100      55  340/ 23/ 29   N/A
CHES BAY BRIDGE  0100   43 52  310/ 24/ 28 1013.2R
CAPE HENRY VA    0100   42     320/ 23/ 27 1012.2R
CHESAPEAKE LGHT  0000   42     320/ 31/ 34 1012.6R
WILLOUBY STN VA  0100   41     330/ 16/ 20 1012.7S
S CRANEY ISL VA  0100          280/  8/ 13 1014.3R
CAPE HENRY BUOY  0000      56                N/A     8/ 8   2/11
1ST LANDING BUOY 0100   44 51  330/ 21/ 27 1013.3R   4/ 4
CAPE CHARLES BUO 0100      55                N/A     6/ 8   5/ 8
64NM E OF VA BCH 0100   47 62  310/ 25/ 31 1010.6R  11/ 9
DUCK PIER NC     0100   42 56  310/ 20/ 24 1013.3R
44100 DUCK FRF   0100      59                N/A     8/ 8   2/11
44056 DUCK FRF   0100      58                N/A     7/ 9   2/11
OREGON INLET NC  0100   44 58  300/ 18/ 24 1014.1R
HATTERAS NC      0100   47 62  310/ 22/ 25 1015.2R
DIAMOND SHLS NC  0100   50     290/ 19/ 25 1014.7R  10/ 9   5/ 9
CAPE LOOKOUT NC  0000   49     290/ 17/ 22 1015.7R
$$



USA.gov is the U.S. government's official web portal to all federal, state and local government web resources and services.